Barcelona-Gracia (Barcelonés)





Hora UTC 15:15
Temperatura 22.1 ºC
Humitat 67.0 %
Pressió 1014.0 hPa
Pluja 4.8 mm
Velocitat vent 3.2 km/h
Direcció vent

Dades diàries 2023-06-01



Hora UTC (hivern +1h; estiu +2h)
Temperatura (ºC) Humitat (%) Pressió (hPa) Velocitat vent (km/h) Precipitació (mm)
Hora UTC Aire Humitat Pressió Vel. Dir. Vel. Max Dir. Intent. màx 5 min.
00:05 0.0
00:15 0.0
00:25 0.0
00:35 0.0
00:45 0.0
00:55 0.0
01:05 0.0
01:15 0.0
01:25 0.0
01:35 0.0
01:45 0.0
02:05 0.0
02:15 0.0
02:25 0.0
02:35 0.0
02:45 0.0
02:55 0.0
03:05 0.0
03:15 0.0
03:25 0.0
03:35 0.0
03:45 0.0
03:55 0.0
04:05 0.0
04:15 0.0
04:25 0.0
04:35 0.0
04:45 0.0
04:55 0.0
05:05 17.7 90.0 1014.0 8.0 0.0
05:15 17.7 90.0 1014.1 6.4 27.4 4.8
05:25 17.8 89.0 1014.1 1.6 27.4 0.0
05:35 17.9 89.0 1014.1 6.4 27.4 0.0
05:45 18.0 87.0 1014.3 3.2 27.4 0.0
05:55 18.1 86.0 1014.3 6.4 27.4 0.0
06:05 18.2 87.0 1014.4 4.8 27.4 0.0
06:15 18.3 87.0 1014.5 4.8 27.4 0.0
06:25 18.4 86.0 1014.4 3.2 27.4 0.0
06:35 18.6 86.0 1014.5 1.6 27.4 0.0
06:45 18.8 86.0 1014.7 0.0 27.4 0.0
06:55 18.9 86.0 1014.6 0.0 27.4 0.0
07:05 19.1 86.0 1014.7 0.0 27.4 0.0
07:15 19.2 86.0 1014.8 0.0 27.4 0.0
07:25 19.3 86.0 1014.8 0.0 27.4 0.0
07:35 19.2 86.0 1014.8 3.2 27.4 0.0
07:45 19.2 86.0 1014.8 0.0 27.4 0.0
07:55 19.5 84.0 1014.8 1.6 27.4 0.0
08:05 19.5 83.0 1014.8 4.8 27.4 0.0
08:15 19.6 81.0 1014.8 0.0 27.4 0.0
08:25 19.5 81.0 1014.9 8.0 27.4 0.0
08:35 19.8 80.0 1014.9 1.6 27.4 0.0
08:45 19.9 79.0 1014.9 1.6 27.4 0.0
08:55 20.2 79.0 1014.9 4.8 27.4 0.0
09:05 20.3 78.0 1015.0 0.0 27.4 0.0
09:15 20.5 77.0 1014.9 0.0 27.4 0.0
09:25 20.3 77.0 1014.9 0.0 27.4 0.0
09:35 20.5 76.0 1015.0 0.0 27.4 0.0
09:45 20.7 75.0 1015.0 9.7 27.4 0.0
09:55 20.6 74.0 1014.9 4.8 27.4 0.0
10:05 21.2 73.0 1014.9 6.4 27.4 0.0
10:15 21.3 70.0 1015.0 4.8 27.4 0.0
10:25 21.3 67.0 1014.9 6.4 27.4 0.0
10:35 22.1 67.0 1014.9 0.0 27.4 0.0
10:45 22.1 64.0 1014.8 1.6 27.4 0.0
10:55 22.6 63.0 1014.7 6.4 27.4 0.0
11:05 21.8 64.0 1014.7 1.6 27.4 0.0
11:15 22.0 65.0 1014.6 4.8 27.4 0.0
11:25 22.3 63.0 1014.5 3.2 27.4 0.0
11:35 22.4 62.0 1014.5 12.9 27.4 0.0
11:45 22.2 64.0 1014.5 9.7 27.4 0.0
11:55 22.0 64.0 1014.5 8.0 27.4 0.0
12:05 21.9 65.0 1014.5 6.4 27.4 0.0
12:15 22.2 66.0 1014.4 11.3 27.4 0.0
12:25 22.4 64.0 1014.5 3.2 27.4 0.0
12:35 21.8 65.0 1014.5 4.8 27.4 0.0
12:45 21.7 64.0 1014.5 8.0 27.4 0.0
12:55 22.4 64.0 1014.4 4.8 27.4 0.0
13:05 22.0 65.0 1014.2 6.4 27.4 0.0
13:15 21.8 67.0 1014.2 16.1 27.4 0.0
13:25 21.7 67.0 1014.3 8.0 27.4 0.0
13:35 21.9 69.0 1014.3 4.8 27.4 0.0
13:45 22.3 68.0 1014.2 8.0 27.4 0.0
13:55 22.6 68.0 1014.2 4.8 27.4 0.0
14:05 22.9 65.0 1014.1 12.9 27.4 0.0
14:15 22.8 66.0 1014.2 19.3 27.4 0.0
14:25 22.5 68.0 1014.3 3.2 27.4 0.0
14:35 21.9 71.0 1014.3 3.2 27.4 0.0
14:45 21.9 69.0 1014.2 3.2 27.4 0.0
14:55 22.1 69.0 1014.2 12.9 27.4 0.0
15:05 21.9 67.0 1014.0 4.8 27.4 0.0
15:15 22.1 67.0 1014.0 3.2 27.4 0.0
Màxima 23.1 90.0 1015.0 19.3 27.4 4.8
Mínima 62.0 1014.0
Total 4.8